Tracking 18980 objects as of 23-Feb-2018
HD Live streaming from Space Station
objects crossing your sky now

ORBCOMM FM 10

Track ORBCOMM FM 10 now!
10-day predictions
ORBCOMM FM 10 is classified as:


NORAD ID: 25113
Int'l Code: 1997-084B
Perigee: 766.8 km
Apogee: 773.2 km
Inclination: 45.0 °
Period: 100.1 minutes
Semi major axis: 7141 km
RCS: 0.4291 m2 (medium)
Launch date: December 23, 1997
Source: ORBCOMM (ORB)
Launch site: Pegasus launched from Eastern Range Air Space (ERAS)
aabbcc
Your satellite tracking list
Your tracking list is empty




NASA's NSSDC Master Catalog

Two Line Element Set (TLE):
1 25113U 97084B   18053.56060360 +.00000029 +00000-0 +55545-4 0  9992
2 25113 045.0177 120.5324 0004450 121.2442 238.8843 14.38679341231350
Source of the keplerian elements: AFSPC